Flag for Germany Weather past 2 weeks in Wertheim, Baden-Württemberg, Germany

Now
79 °F

Overcast.


Feels Like: 79 °F
Forecast: 56 / 82 °F
Wind: 3 mph from Southeast

Location: Wuerzburg

Current Time: Aug 1, 2014 at 4:05:28 PM

Latest Report: Aug 1, 2014 at 3:00 PM


Visibility: 25 mi

Pressure: 29.83 "Hg

Humidity: 41%

Dew point: 53 °F

Location of WertheimLocation

Historic Weather in Wertheim — Graph

°F

Wertheim temperature yesterday

Maximum temperature yesterday: 78 °F (at 5:00 PM)
Minimum temperature yesterday: 62 °F (at 6:00 AM)
Average temperature yesterday: 69 °F

Past Weeks' High & Low Weather Summary

 TemperatureHumidityPressure
High90 °F (Jul 19, 5:00 PM)98% (Jul 27, 6:00 AM)30.12 "Hg (Jul 27, 6:00 AM)
Low57 °F (Aug 1, 6:00 AM)28% (Jul 19, 4:00 PM)29.68 "Hg (Jul 29, 3:00 PM)
Average71 °F68%29.88 "Hg
* Reported Jul 17 3:00 PM — Aug 1 3:00 PM, Wertheim, Weather by CustomWeather, © 2014

Note: Actual official high and low records may vary slightly from our data, if they occured in-between our weather recording intervals... More about our weather records

Advertising

Wertheim weather history for previous 24 hours

 ConditionsComfort  
Time TempWeatherWind HumidityBarometerVisibility
3:00 PM
Aug 1
79 °FOvercast.3 mph41%29.83 "Hg25 mi
2:00 PM77 °FOvercast.3 mph45%29.84 "Hg22 mi
1:00 PM76 °FOvercast.5 mph44%29.85 "Hg22 mi
12:00 PM76 °FOvercast.5 mph52%29.87 "Hg22 mi
11:00 AM73 °FOvercast.3 mph61%29.89 "Hg19 mi
10:00 AM70 °FPartly sunny.2 mph68%29.90 "Hg15 mi
9:00 AM66 °FPartly sunny.1 mph78%29.91 "Hg11 mi
8:00 AM63 °FScattered clouds.1 mph89%29.92 "Hg12 mi
7:00 AM58 °FPassing clouds.1 mph95%29.92 "Hg9 mi
6:00 AM57 °FPassing clouds.1 mph94%29.93 "Hg7 mi
5:00 AM58 °FPassing clouds.1 mph94%29.93 "Hg10 mi
4:00 AM58 °FClear.No wind93%29.93 "Hg9 mi
3:00 AM60 °FClear.No wind92%29.94 "Hg9 mi
2:00 AM60 °FClear.1 mph90%29.94 "Hg11 mi
1:00 AM62 °FClear.1 mph89%29.94 "Hg12 mi
12:00 AM63 °FClear.No wind84%29.95 "Hg12 mi
11:00 PM
Jul 31
65 °FPassing clouds.1 mph78%29.94 "Hg17 mi
10:00 PM68 °FPassing clouds.1 mph70%29.93 "Hg22 mi
9:00 PM71 °FPassing clouds.2 mph59%29.91 "Hg25 mi
8:00 PM74 °FScattered clouds.1 mph52%29.91 "Hg25 mi
7:00 PM76 °FPartly sunny.2 mph48%29.91 "Hg28 mi
6:00 PM76 °FPartly sunny.2 mph48%29.92 "Hg28 mi
5:00 PM78 °FScattered clouds.2 mph45%29.92 "Hg28 mi
4:00 PM75 °FPartly sunny.2 mph47%29.93 "Hg28 mi
Weather by CustomWeather, © 2014

See weather overviewHow to use our weather pages